EW5835 Weather Reports


Display with metric or nautical units.
time (UTC)temp
F
wind
direction
speed
MPH
gust
MPH
rain 1hr
in
rain 24hr
in
rain mn
in
humidity
%
barometer
mb
20260502214647 51 102 0.0 1.0 0.00 1.63 0.29 41 1011.1
20260502214153 53 58 0.0 0.0 0.00 1.63 0.29 41 1011.2
20260502214149 52 68 0.0 1.0 0.00 1.63 0.29 40 1011.2
20260502213148 52 0 0.0 0.0 0.00 1.63 0.29 40 1011.1
20260502212650 51 13 0.0 2.0 0.00 1.63 0.29 40 1011.1
20260502212646 52 1 0.0 2.0 0.00 1.63 0.29 40 1011.1
20260502211653 52 227 0.0 0.0 0.00 1.63 0.29 39 1011.2
20260502211646 51 47 0.0 0.0 0.00 1.63 0.29 39 1011.1
20260502211146 52 8 0.0 2.0 0.00 1.63 0.29 41 1011.0
20260502210646 52 317 0.0 2.0 0.00 1.63 0.29 39 1011.1
20260502205651 53 172 0.0 0.0 0.00 1.63 0.29 41 1011.0
20260502205646 53 289 0.0 0.0 0.00 1.63 0.29 40 1011.0
20260502204645 53 340 0.0 0.0 0.00 1.63 0.29 40 1011.0
20260502204146 54 45 0.0 0.0 0.00 1.63 0.29 39 1011.0
20260502203646 54 329 0.0 2.0 0.00 1.63 0.29 40 1010.9
20260502203146 54 324 0.0 2.0 0.00 1.63 0.29 37 1010.8
20260502202645 54 276 0.0 1.0 0.00 1.63 0.29 40 1010.7
20260502202146 54 281 0.0 3.0 0.00 1.63 0.29 38 1010.9
20260502201650 54 312 0.0 1.0 0.00 1.63 0.29 37 1011.0
20260502201645 54 269 0.0 3.0 0.00 1.63 0.29 39 1010.8
20260502200651 54 240 0.0 3.0 0.00 1.63 0.29 40 1011.1
20260502200645 54 147 0.0 1.0 0.00 1.63 0.29 37 1011.0
20260502200145 55 0 0.0 1.0 0.00 1.63 0.29 37 1011.1
20260502195144 54 302 0.0 3.0 0.00 1.63 0.29 36 1011.2
20260502194642 55 228 0.0 0.0 0.00 1.63 0.29 36 1011.3
20260502194144 55 182 0.0 1.0 0.00 1.63 0.29 39 1011.2
20260502193643 55 103 0.0 1.0 0.00 1.63 0.29 38 1011.2
20260502193142 55 329 0.0 5.0 0.00 1.63 0.29 38 1011.3
20260502192644 55 285 0.0 5.0 0.00 1.63 0.29 38 1011.2
20260502192147 55 234 0.0 0.0 0.00 1.63 0.29 37 1011.6
20260502192142 55 111 0.0 0.0 0.00 1.63 0.29 38 1011.3
20260502191142 55 18 0.0 0.0 0.00 1.63 0.29 38 1011.6
20260502190643 55 264 0.0 0.0 0.00 1.63 0.29 43 1011.7
20260502190142 55 264 0.0 0.0 0.00 1.63 0.29 43 1011.7
20260502185643 55 289 0.0 1.0 0.00 1.63 0.29 41 1011.6
20260502185146 55 305 0.0 0.0 0.00 1.63 0.29 37 1011.7
20260502185142 55 78 0.0 1.0 0.00 1.63 0.29 39 1011.6
20260502184148 55 86 0.0 1.0 0.00 1.63 0.29 37 1011.6
20260502184141 55 341 0.0 0.0 0.00 1.63 0.29 37 1011.7
20260502183643 55 337 0.0 0.0 0.00 1.63 0.29 38 1011.7
20260502183147 55 340 0.0 2.0 0.00 1.63 0.29 39 1011.6
20260502182139 55 13 0.0 6.0 0.00 1.63 0.29 36 1011.7
20260502181641 56 317 1.0 6.0 0.00 1.63 0.29 40 1011.6
20260502181139 56 307 0.0 0.0 0.00 1.63 0.29 39 1011.6
20260502180638 55 128 0.0 0.0 0.00 1.63 0.29 42 1011.6
20260502180138 55 125 0.0 3.0 0.00 1.63 0.29 40 1011.6
20260502170138 55 231 0.0 0.0 0.00 1.63 0.29 43 1011.7
20260502164142 54 299 0.0 1.0 0.00 1.63 0.29 43 1011.8
20260502164138 54 250 0.0 0.0 0.00 1.63 0.29 41 1011.8
20260502163137 54 45 0.0 1.0 0.00 1.63 0.29 40 1011.9
20260502162635 55 259 0.0 0.0 0.00 1.63 0.29 43 1011.9
20260502162136 55 25 0.0 0.0 0.00 1.63 0.29 43 1012.0
20260502161642 54 130 0.0 3.0 0.00 1.63 0.29 43 1012.1
20260502161637 54 7 0.0 1.0 0.00 1.63 0.29 45 1012.1
20260502160636 55 82 0.0 3.0 0.00 1.63 0.29 43 1012.2
20260502160134 55 99 0.0 0.0 0.00 1.63 0.29 50 1012.2
20260502152134 52 75 0.0 2.0 0.00 1.63 0.29 46 1012.4
20260502151633 53 59 0.0 2.0 0.00 1.63 0.29 48 1012.4
20260502151133 52 343 0.0 5.0 0.00 1.63 0.29 47 1012.4
20260502150635 52 90 1.0 10.0 0.00 1.63 0.29 52 1012.4
20260502150138 52 345 1.0 6.0 0.00 1.63 0.29 50 1012.4
20260502150134 52 268 0.0 10.0 0.00 1.63 0.29 49 1012.5
20260502130630 47 76 0.0 0.0 0.00 1.63 0.29 77 1013.0
20260502130131 46 310 0.0 0.0 0.00 1.63 0.29 82 1013.0
20260502123630 45 330 0.0 0.0 0.00 1.63 0.29 85 1012.8
20260502123128 45 69 0.0 0.0 0.00 1.63 0.29 84 1012.7
20260502122628 44 24 0.0 0.0 0.00 1.63 0.29 88 1012.7
20260502122129 43 0 0.0 0.0 0.00 1.63 0.29 88 1012.8
20260502121628 43 120 0.0 0.0 0.00 1.63 0.29 88 1012.8
20260502121126 44 252 0.0 0.0 0.00 1.63 0.29 89 1012.8
20260502120632 44 106 0.0 0.0 0.00 1.63 0.29 92 1012.8
20260502120628 43 354 0.0 0.0 0.00 1.63 0.29 90 1012.8
20260502115629 43 103 0.0 0.0 0.00 1.63 0.29 92 1012.7
20260502115126 43 85 0.0 0.0 0.00 1.63 0.29 92 1012.6
20260502114627 43 90 0.0 0.0 0.00 1.63 0.29 94 1012.6
20260502114126 43 17 0.0 0.0 0.00 1.63 0.29 94 1012.7
20260502113626 43 254 0.0 0.0 0.00 1.63 0.29 94 1012.8
20260502113127 43 200 0.0 0.0 0.00 1.63 0.29 94 1012.6
20260502112627 43 214 0.0 0.0 0.00 1.63 0.29 94 1012.5
20260502112130 43 226 0.0 0.0 0.00 1.63 0.29 95 1012.2
20260502112126 43 271 0.0 0.0 0.00 1.63 0.29 95 1012.3
20260502111130 43 268 0.0 0.0 0.00 1.63 0.29 95 1011.9
20260502111126 43 238 0.0 0.0 0.00 1.63 0.29 95 1012.2
20260502110125 43 265 0.0 0.0 0.00 1.63 0.29 95 1011.9
20260502105625 43 231 0.0 0.0 0.00 1.63 0.29 95 1011.9
20260502105125 44 305 0.0 0.0 0.00 1.63 0.29 96 1011.8
20260502104625 44 226 0.0 0.0 0.00 1.63 0.29 96 1011.7
20260502104124 44 141 0.0 0.0 0.00 1.63 0.29 96 1011.8
20260502103625 44 207 0.0 0.0 0.00 1.63 0.29 96 1012.0
20260502103214 44 252 0.0 0.0 0.00 1.63 0.29 96 1011.7
20260502103143 44 240 0.0 0.0 0.00 1.63 0.29 96 1011.9
20260502103126 44 228 0.0 0.0 0.00 1.63 0.29 96 1012.1
20260502101628 44 252 0.0 0.0 0.00 1.63 0.29 96 1011.3
20260502101623 44 252 0.0 0.0 0.00 1.63 0.29 96 1011.5
20260502100624 44 252 0.0 0.0 0.00 1.63 0.29 96 1011.3
20260502100123 44 252 0.0 0.0 0.00 1.63 0.29 96 1011.3
20260502091126 44 93 0.0 0.0 0.00 1.63 0.29 96 1011.0
20260502091120 44 94 0.0 0.0 0.00 1.63 0.29 96 1011.0
20260502090122 44 93 0.0 0.0 0.00 1.63 0.29 96 1011.1
20260502071118 45 93 0.0 0.0 0.04 1.62 0.28 95 1011.5
20260502070618 45 103 0.0 0.0 0.07 1.62 0.28 95 1011.7
20260502070118 45 103 0.0 0.0 0.07 1.61 0.27 95 1011.8
20260502065618 45 103 0.0 0.0 0.08 1.61 0.27 95 1011.8
20260502065116 45 103 0.0 0.0 0.09 1.61 0.27 95 1011.9
20260502064617 45 243 0.0 0.0 0.10 1.61 0.27 95 1012.0
20260502064116 45 243 0.0 0.0 0.10 1.61 0.27 95 1012.1
20260502063617 45 243 0.0 0.0 0.09 1.60 0.26 95 1012.1
20260502063116 45 243 0.0 0.0 0.09 1.60 0.26 95 1012.1
20260502062615 45 257 0.0 0.0 0.10 1.60 0.26 95 1012.2
20260502062121 45 257 0.0 0.0 0.10 1.59 0.25 95 1012.1
20260502062116 45 257 0.0 0.0 0.10 1.59 0.25 95 1012.2
20260502061728 45 257 0.0 0.0 0.09 1.58 0.24 95 1012.2
20260502061232 45 257 0.0 0.0 0.07 1.55 0.21 95 1012.4
20260502060729 45 257 0.0 0.0 0.06 1.54 0.20 95 1012.5
20260502055616 45 257 0.0 0.0 1.35 1.53 0.19 95 1012.4
20260502055115 45 250 0.0 0.0 1.34 1.52 0.18 95 1012.3
20260502054614 45 219 0.0 0.0 1.33 1.51 0.17 94 1012.2
20260502054115 45 171 0.0 0.0 1.33 1.51 0.17 94 1012.0
20260502053614 45 274 0.0 0.0 1.34 1.51 0.17 94 1012.0
20260502053115 45 274 0.0 0.0 1.36 1.51 0.17 94 1012.1
20260502052614 45 274 0.0 0.0 1.37 1.50 0.16 94 1012.1
20260502052114 45 274 0.0 0.0 1.38 1.49 0.15 94 1012.1
20260502051615 45 78 0.0 0.0 1.40 1.49 0.15 94 1012.1
20260502051112 45 79 0.0 0.0 1.43 1.49 0.15 93 1012.0
20260502050612 45 257 0.0 0.0 1.43 1.48 0.14 93 1011.9
20260502050113 45 257 0.0 0.0 1.43 1.48 0.14 93 1012.3
20260502045615 45 106 4.0 87.0 0.13 0.18 0.13 93 1012.3
20260502045112 45 106 4.0 87.0 0.13 0.18 0.13 93 1012.2
20260502044612 45 20 0.0 0.0 0.13 0.18 0.13 93 1011.9
20260502044112 45 21 0.0 0.0 0.13 0.18 0.13 93 1011.9
20260502043612 45 338 0.0 0.0 0.12 0.17 0.12 93 1012.2
20260502043110 45 309 0.0 0.0 0.10 0.15 0.10 93 1012.3
20260502042611 45 151 0.0 0.0 0.08 0.13 0.08 93 1012.3
20260502042112 45 162 0.0 0.0 0.06 0.11 0.06 92 1012.6
20260502041611 45 157 0.0 0.0 0.04 0.09 0.04 92 1012.4
20260502041111 45 135 0.0 0.0 0.01 0.06 0.01 92 1012.4
20260502040611 45 135 0.0 0.0 0.01 0.05 0.00 92 1012.3
20260502040111 45 135 0.0 0.0 0.01 0.05 0.00 92 1012.4
20260502035614 45 134 0.0 0.0 0.01 0.05 0.04 91 1012.1
20260502035609 45 134 0.0 0.0 0.01 0.05 0.04 92 1012.3
20260502035224 46 157 0.0 0.0 0.01 0.05 0.04 91 1012.2
20260502034108 46 157 0.0 0.0 0.01 0.05 0.04 91 1012.1
20260502033610 46 157 0.0 0.0 0.02 0.05 0.04 91 1012.2
20260502033109 46 157 0.0 0.0 0.02 0.05 0.04 91 1012.1
20260502032608 46 157 0.0 0.0 0.03 0.05 0.04 90 1012.2
20260502032108 46 157 0.0 0.0 0.05 0.05 0.04 90 1012.4
20260502031609 46 157 0.0 0.0 0.05 0.05 0.04 90 1012.4
20260502031113 46 226 0.0 0.0 0.04 0.04 0.03 89 1012.5
20260502031108 46 202 0.0 0.0 0.05 0.05 0.04 90 1012.4
20260502030109 46 224 0.0 0.0 0.04 0.04 0.03 88 1012.6
20260502025610 46 274 0.0 0.0 0.04 0.04 0.03 87 1012.6
20260502025107 46 274 0.0 0.0 0.04 0.04 0.03 87 1012.6
20260502024607 47 274 0.0 0.0 0.04 0.04 0.03 86 1012.6
20260502024108 47 274 0.0 0.0 0.04 0.04 0.03 85 1012.6
20260502023606 47 274 0.0 0.0 0.03 0.03 0.02 84 1012.6
20260502023106 47 274 0.0 0.0 0.03 0.03 0.02 83 1012.7
20260502022609 47 317 0.0 0.0 0.02 0.02 0.01 80 1012.6
20260502022108 48 337 0.0 0.0 0.00 0.00 0.00 80 1012.6
20260502021611 48 220 0.0 0.0 0.00 0.00 0.00 76 1012.4
20260502021606 48 337 0.0 0.0 0.00 0.00 0.00 78 1012.5
20260502020606 48 220 0.0 0.0 0.00 0.00 0.00 76 1012.3
20260502020106 48 313 0.0 0.0 0.00 0.00 0.00 76 1012.2
20260502015611 48 313 0.0 0.0 0.00 0.00 0.00 75 1012.2
20260502015607 48 313 0.0 0.0 0.00 0.00 0.00 76 1012.2
20260502014611 48 292 0.0 0.0 0.00 0.00 0.00 75 1012.1
20260502014105 48 292 0.0 0.0 0.00 0.00 0.00 76 1012.0
20260502013604 48 274 0.0 0.0 0.00 0.00 0.00 75 1012.1
20260502013109 48 274 0.0 0.0 0.00 0.00 0.00 75 1012.1
20260502013105 48 274 0.0 0.0 0.00 0.00 0.00 75 1012.1
20260502012105 48 330 0.0 0.0 0.00 0.00 0.00 74 1012.2
20260502011609 49 330 0.0 0.0 0.00 0.00 0.00 71 1012.1
20260502011605 49 330 0.0 0.0 0.00 0.00 0.00 73 1012.1
20260502010609 49 330 0.0 0.0 0.00 0.00 0.00 70 1011.9
20260502010603 49 330 0.0 0.0 0.00 0.00 0.00 70 1012.0
20260502005605 49 330 0.0 0.0 0.00 0.00 0.00 69 1012.0
20260502005104 49 330 0.0 0.0 0.00 0.00 0.00 68 1011.9
20260502004603 50 330 0.0 0.0 0.00 0.00 0.00 67 1011.9
20260502004104 50 344 0.0 0.0 0.00 0.00 0.00 67 1011.9
20260502003603 50 345 0.0 0.0 0.00 0.00 0.00 66 1012.0
20260502003103 50 345 0.0 0.0 0.00 0.00 0.00 65 1011.9
20260502002603 50 345 0.0 0.0 0.00 0.00 0.00 65 1011.8
20260502002104 51 345 0.0 0.0 0.00 0.00 0.00 64 1011.7
20260502001603 51 345 0.0 0.0 0.00 0.00 0.00 62 1011.6
20260502001103 51 345 0.0 0.0 0.00 0.00 0.00 62 1011.6
20260502000603 52 345 0.0 0.0 0.00 0.00 0.00 61 1011.5
20260502000101 52 345 0.0 0.0 0.00 0.00 0.00 61 1011.5
20260501235601 52 345 0.0 0.0 0.00 0.00 0.00 61 1011.5
20260501235102 53 298 0.0 0.0 0.00 0.00 0.00 61 1011.5
20260501234602 53 293 0.0 0.0 0.00 0.00 0.00 61 1011.5
20260501234101 53 245 0.0 0.0 0.00 0.00 0.00 59 1011.5
20260501233601 53 276 0.0 0.0 0.00 0.00 0.00 59 1011.5
20260501233102 53 241 0.0 0.0 0.00 0.00 0.00 58 1011.3
20260501232601 53 261 0.0 0.0 0.00 0.00 0.00 58 1011.2
20260501232101 53 257 0.0 0.0 0.00 0.00 0.00 58 1011.3
20260501231601 53 265 0.0 0.0 0.00 0.00 0.00 57 1011.3
20260501231101 53 257 0.0 0.0 0.00 0.00 0.00 57 1011.3
20260501230600 53 44 0.0 0.0 0.00 0.00 0.00 57 1011.3
20260501230101 54 80 0.0 0.0 0.00 0.00 0.00 57 1011.3
20260501225600 54 333 0.0 0.0 0.00 0.00 0.00 58 1011.3
20260501225059 54 255 0.0 0.0 0.00 0.00 0.00 58 1011.2
20260501224600 54 48 0.0 0.0 0.00 0.00 0.00 56 1011.1
20260501224059 54 66 0.0 0.0 0.00 0.00 0.00 56 1011.2
20260501223605 54 286 0.0 0.0 0.00 0.00 0.00 55 1011.2
20260501223600 54 357 0.0 0.0 0.00 0.00 0.00 55 1011.1
20260501223213 55 355 0.0 0.0 0.00 0.00 0.00 54 1011.1
20260501222715 55 262 0.0 0.0 0.00 0.00 0.00 54 1011.1
20260501221559 55 252 0.0 1.0 0.00 0.00 0.00 53 1011.2
20260501221105 56 306 0.0 0.0 0.00 0.00 0.00 52 1011.1
20260501221100 55 23 0.0 1.0 0.00 0.00 0.00 52 1011.1
20260501220057 56 231 0.0 0.0 0.00 0.00 0.00 51 1011.1
20260501215557 56 235 0.0 0.0 0.00 0.00 0.00 50 1011.0
20260501215057 56 78 0.0 0.0 0.00 0.00 0.00 50 1010.9